Weather History for Louisville Bowman, KY

Change the Weather History Date:

Wednesday, January 19, 2005

  Actual Average Record
Temperature  
Mean Temperature 32 °F 34 °F  
Max Temperature 39 °F 42 °F 68 °F (1951)
Min Temperature 25 °F 26 °F -3 °F (1984)
Degree Days  
Heating Degree Days 33 31  
Month to date heating degree days 583  
Since 1 July heating degree days 2247  
Cooling Degree Days 0 0  
Month to date cooling degree days 0  
Year to date cooling degree days 0  
Moisture  
Dew Point 21 °F    
Average Humidity 55    
Maximum Humidity 73    
Minimum Humidity 35    
Precipitation  
Precipitation 0.00 in 0.10 in 3.00 in (1988)
Month to date precipitation 2.24  
Year to date precipitation 2.24  
Sea Level Pressure  
Sea Level Pressure 30.15 in    
Wind  
Wind Speed 11 mph (West)    
Max Wind Speed 17 mph    
Max Gust Speed 93 mph    
Visibility 10 miles    
Events      
T = Trace of Precipitation, MM = Missing Value Source: NWS Daily Summary

Daily Weather History Graph

Daily Weather History Graph

Search for Another Location

Airport:

Trip Planner

Search our weather history database for the weather conditions in past years. The results will help you decide how hot, cold, wet, or windy it might be!

Date:

Astronomy

Jan. 19, 2005 Rise Set
Actual Time 7:56 AM EST 5:51 PM EST
Civil Twilight 7:27 AM EST 6:19 PM EST
Nautical Twilight 6:55 AM EST 6:51 PM EST
Astronomical Twilight 6:23 AM EST 7:23 PM EST
Moon 1:11 PM EST (1/19) 3:15 AM EST (1/19)
Length of Visible Light 10h 52m
Length of Day
9h 54m
Waxing Gibbous, 73% of the Moon is Illuminated
Jan 19
Waxing Gibbous
Jan 25
Full
Feb 2
Last Quarter
Feb 8
New
Feb 15
First Quarter

Hourly Weather History & Observations

Time (EST) Temp. Windchill Dew Point Humidity Pressure Visibility Wind Dir Wind Speed Gust Speed Precip Events Conditions
12:53 AM 25.0 °F 17.1 °F 7.0 °F 46% 30.32 in 10.0 mi Variable 6.9 mph - N/A   Overcast
1:53 AM 27.0 °F 19.5 °F 8.1 °F 45% 30.29 in 10.0 mi South 6.9 mph - N/A   Overcast
3:53 AM 32.0 °F 20.8 °F 7.0 °F 35% 30.19 in 10.0 mi SW 17.3 mph 93.2 mph N/A   Overcast
4:53 AM 32.0 °F 22.5 °F 8.1 °F 37% 30.16 in 10.0 mi SW 12.7 mph 17.3 mph N/A   Overcast
5:53 AM 33.1 °F 23.9 °F 9.0 °F 37% 30.14 in 10.0 mi SW 12.7 mph - N/A   Overcast
6:53 AM 34.0 °F 25.0 °F 12.9 °F 42% 30.14 in 10.0 mi WSW 12.7 mph 23.0 mph N/A   Overcast
7:53 AM 35.1 °F 25.9 °F 17.1 °F 48% 30.13 in 10.0 mi SW 13.8 mph 20.7 mph N/A   Mostly Cloudy
8:53 AM 36.0 °F 27.5 °F 16.0 °F 44% 30.12 in 10.0 mi WSW 12.7 mph 18.4 mph N/A   Overcast
9:53 AM 37.0 °F 28.5 °F 16.0 °F 42% 30.11 in 10.0 mi WSW 13.8 mph 23.0 mph N/A   Overcast
10:07 AM 37.4 °F 29.3 °F 15.8 °F 41% 30.10 in 0.8 mi SW 12.7 mph 19.6 mph N/A   Haze
10:14 AM 37.4 °F 28.9 °F 17.6 °F 45% 30.10 in 10.0 mi SW 13.8 mph 20.7 mph N/A   Overcast
10:53 AM 37.0 °F 28.9 °F 18.0 °F 46% 30.12 in 10.0 mi WSW 12.7 mph 21.9 mph N/A   Overcast
11:53 AM 37.9 °F 28.9 °F 21.9 °F 53% 30.12 in 10.0 mi West 16.1 mph - N/A   Overcast
12:53 PM 39.0 °F 31.4 °F 24.1 °F 55% 30.11 in 10.0 mi West 12.7 mph 20.7 mph N/A   Overcast
1:53 PM 39.0 °F 30.6 °F 27.0 °F 62% 30.10 in 10.0 mi West 15.0 mph 23.0 mph N/A   Overcast
2:29 PM 37.4 °F 28.2 °F 26.6 °F 65% 30.09 in 10.0 mi West 16.1 mph 24.2 mph N/A   Overcast
2:53 PM 37.9 °F 29.6 °F 27.0 °F 65% 30.11 in 10.0 mi West 13.8 mph - N/A   Overcast
3:53 PM 39.0 °F 34.0 °F 28.0 °F 65% 30.11 in 10.0 mi West 6.9 mph - N/A   Overcast
4:53 PM 39.0 °F 34.0 °F 28.0 °F 65% 30.13 in 10.0 mi West 6.9 mph - N/A   Overcast
5:53 PM 39.0 °F 33.4 °F 28.9 °F 67% 30.14 in 10.0 mi WNW 8.1 mph - N/A   Overcast
6:53 PM 37.9 °F 32.7 °F 28.9 °F 70% 30.15 in 10.0 mi WNW 6.9 mph - N/A   Overcast
7:53 PM 37.9 °F 30.9 °F 30.0 °F 73% 30.17 in 10.0 mi NW 10.4 mph - N/A   Overcast
8:53 PM 37.9 °F 29.6 °F 30.0 °F 73% 30.17 in 10.0 mi NW 13.8 mph - N/A   Overcast
9:53 PM 37.0 °F 29.3 °F 28.9 °F 73% 30.17 in 10.0 mi NW 11.5 mph - N/A   Overcast
10:53 PM 36.0 °F 29.0 °F 27.0 °F 70% 30.18 in 10.0 mi NNW 9.2 mph - N/A   Overcast
11:53 PM 36.0 °F 29.6 °F 27.0 °F 70% 30.18 in 10.0 mi West 8.1 mph - N/A   Overcast